Regional Weather Roundup
Issued by NWS

Home | Current Version | Previous Version | Text Only | Print | Product List | Glossary Off
Versions: 1 2 3 4 5 6 7 8 9 10 11 12 13 14 15 16 17 18 19 20 21 22 23 24 25 26 27

000
ASUS45 KSLC 210610
RWRUT

UTAH REGIONAL WEATHER ROUNDUP
NATIONAL WEATHER SERVICE SALT LAKE CITY UT
1100 PM MST TUE FEB 20 2018

UTZ001>011-023>025-210700-

NORTHERN UTAH

CITY           SKY/WX    TMP DP  RH WIND       PRES   REMARKS
BRIGHAM CITY   CLEAR     16   6  64 CALM      30.17S
HILL AFB       CLEAR     13   3  65 E13       30.14R WCI  -2
LOGAN          CLEAR      5  -2  72 NE3       30.17R
OGDEN          PTCLDY    14   4  64 S9        30.15S WCI   2
SALT LAKE CITY CLEAR     18   8  65 SE8       30.17R WCI   8
TOOELE VALLEY  PTCLDY    12   5  73 S12       30.17R WCI  -2
WENDOVER       NOT AVBL
HEBER CITY       N/A     -2  -8  78 CALM      30.11R
WEST JORDAN    CLEAR     10   8  90 S6        30.17R WCI   1

$$

UTZ011>015-024>027-210700-

CENTRAL/NORTHEAST UTAH

CITY           SKY/WX    TMP DP  RH WIND       PRES   REMARKS
PROVO AIRPORT  PTCLDY    12   5  73 SE6       30.19R WCI   3
MOAB/CANYONLAN PTCLDY    21   5  50 CALM      30.10S
DELTA          PTCLDY     9   5  85 N3        30.14S
PRICE          PTCLDY    12  -2  53 NE6       30.08R WCI   3
RICHFIELD      CLEAR     10   9  92 CALM      30.14R
VERNAL         MOCLDY     9   1  70 NW6       30.14R WCI  -1

$$

UTZ013>016-019>022-027-210700-

SOUTHERN UTAH

CITY           SKY/WX    TMP DP  RH WIND       PRES   REMARKS
BRYCE CANYON   CLEAR      0  -5  79 W6        30.03S WCI -12
CEDAR CITY     PTCLDY     7   4  87 CALM      30.07R
MILFORD        CLEAR      3   0  87 W7        30.13R WCI  -9
ST GEORGE      PTCLDY    29  14  53 E6        30.16R WCI  23
HANKSVILLE     MOCLDY    23   3  42 CALM      30.15R
KANAB          CLEAR     23   5  46 N9        30.14S WCI  13
BLANDING         N/A     16   4  58 N9        30.16S WCI   5

$$

REGIONAL REPORTS     COLORADO/ARIZONA

CITY           SKY/WX    TMP DP  RH WIND       PRES   REMARKS
CRAIG, CO      PTCLDY   -11 -16  78 CALM      30.12R
GRAND JUNCTION PTCLDY    23  18  81 E14       30.13R WCI  11
RIFLE, CO      CLEAR     11   3  70 SE5       30.14R WCI   3
MONTROSE, CO   MOCLDY    14  10  84 SE9       30.15S WCI   2
CORTEZ, CO     CLEAR     12   8  84 E5        30.11R WCI   4
COLORADO CITY    N/A     18  12  79 CALM      30.13S
PAGE, AZ       CLEAR     31   2  29 NW3       30.09S
GRAND CANYON   CLEAR      6   1  80 NE3       30.05R
KINGMAN, AZ    CLEAR     25   3  38 SE8       30.11S WCI  16
FLAGSTAFF, AZ  CLEAR     11   2  67 CALM      30.03S

$$

REGIONAL REPORTS    NEVADA/IDAHO/WYOMING

CITY           SKY/WX    TMP DP  RH WIND       PRES   REMARKS
LAS VEGAS, NV  MOCLDY    43   0  16 E3        30.14R
ELY, NY        CLEAR     11  -2  56 SW12      30.03S WCI  -3
ELKO, NV       PTCLDY    10   2  69 E3        30.08R
POCATELLO, ID  CLOUDY    12   4  70 CALM      30.14S
BURLEY, ID     PTCLDY     7  -1  70 CALM      30.12S
EVANSTON, WY   PTCLDY     0  -3  87 SE3       30.01S
ROCK SPRINGS,  CLEAR      2  -5  72 S6        30.05R WCI  -9

$$




USA.gov is the U.S. government's official web portal to all federal, state and local government web resources and services.